Location: Unspecified
(0.0000°N, 0.0000°E)
Time: 09:01:29
(UTC+00:00)

Kosmos-1429 - Pass Details

Date: 24 February 2024
Orbit: 1466 x 1518 km, 74.0° (Epoch: 13 April)

Event Time Altitude Azimuth Distance (km) Brightness Sun altitude
Rises 05:15:43 0° 164° (SSE) 4,578 ? -14.2°
Reaches altitude 10° 05:19:31 10° 149° (SSE) 3,600 ? -13.3°
Maximum altitude 05:25:49 22° 102° (ESE) 2,783 ? -11.7°
Drops below altitude 10° 05:32:05 10° 55° (NE) 3,615 ? -10.2°
Sets 05:35:51 0° 41° (NE) 4,602 ? -9.2°
